Location: Bessat
(45.8735°N, 1.9924°E)
Time: 04:42:41
(UTC+00:00)

Cosmos 1151 Rocket - Pass Details

Date: 11 May 2021
Orbit: 592 x 616 km, 82.5° (Epoch: 14 June)

Event Time Altitude Azimuth Distance (km) Brightness Sun altitude
Exits shadow 19:56:21 - 162° (SSE) 2,509 5.7 -7.3°
Reaches altitude 10° 19:57:48 10° 155° (SSE) 1,963 5.1 -7.5°
Maximum altitude 20:01:43 34° 91° (E) 1,020 3.8 -8.1°
Drops below altitude 10° 20:05:41 10° 26° (NNE) 1,987 5.8 -8.6°
Sets 20:08:04 0° 18° (NNE) 2,899 6.8 -9.0°
